Tracking 22100 objects as of 19-Jan-2021
HD Live streaming from Space Station
objects crossing your sky now

STARLINK-1193

Track STARLINK-1193 now!
10-day predictions
STARLINK-1193 is classified as:


NORAD ID: 45100
Int'l Code: 2020-006BJ
Perigee: 553.1 km
Apogee: 555.6 km
Inclination: 53.1 °
Period: 95.6 minutes
Semi major axis: 6925 km
RCS: Unknown
Launch date: January 29, 2020
Source: United States (US)
Launch site: AIR FORCE EASTERN TEST RANGE (AFETR)
aabbcc
Your satellite tracking list
Your tracking list is empty




NASA's NSSDC Master Catalog

Two Line Element Set (TLE):
1 45100U 20006BJ  21018.75169056  .00000262  00000-0  36481-4 0  9995
2 45100  53.0585  28.0152 0001822  57.6927 302.4238 15.06394499 54275
Source of the keplerian elements: AFSPC